AMOS-3

Last updated on Sun Apr 05 2026 00:02:49 GMT+0000 (Coordinated Universal Time)

1 32794U 08022A 26094.17541980 -.00000035 00000+0 00000+0 0 9990 2 32794 0.2645 87.1665 0000517 200.3060 324.0630 1.00273860 81599
UTC large
Height (km)
Speed (km/s)
/
Latitude / Longitude
Inclination (degrees)
Orbital Period (minutes)
Azimuth
Elevation
Range (km)
Doppler Factor

Next 0 passes for location: London (51.5072 / 0.1276)

Sorry there are no passes over London.